Decherd, TN

3:07 AM CST on January 19, 2017 (GMT -0600)
Winchester Municipal

Weather History for KBGF - May, 2013

Change the Weather History Date:

Tuesday, May 7, 2013

  Actual Average (KTHA) Record (KTHA)
Temperature  
Mean Temperature 58 °F -  
Max Temperature 69 °F 76 °F 84 °F (2015)
Min Temperature 48 °F 52 °F 39 °F (2013)
Degree Days  
Heating Degree Days 6    
Growing Degree Days 8 (Base 50)    
Moisture  
Dew Point 52 °F    
Average Humidity 71    
Maximum Humidity 100    
Minimum Humidity 53    
Precipitation  
Precipitation 0.00 in - - ()
Sea Level Pressure  
Sea Level Pressure 29.99 in    
Wind  
Wind Speed 2 mph (West)    
Max Wind Speed 9 mph    
Max Gust Speed -    
Visibility 10 miles    
Events      
Averages and records for this station are not official NWS values.
T = Trace of Precipitation, MM = Missing Value Source: NWS Daily Summary

Daily Weather History Graph

Daily Weather History Graph

Search for Another Location

Airport or City:

Trip Planner

Search our weather history database for the weather conditions in past years. The results will help you decide how hot, cold, wet, or windy it might be!

Date:

Astronomy

May. 07, 2013 Rise Set
Actual Time 6:46 AM EDT 8:35 PM EDT
Civil Twilight 6:19 AM EDT 9:02 PM EDT
Nautical Twilight 5:46 AM EDT 9:36 PM EDT
Astronomical Twilight 5:10 AM EDT 10:11 PM EDT
Moon 5:15 AM EDT (5/7) 6:38 PM EDT (5/7)
Length of Visible Light 14h 43m
Length of Day
13h 48m
Waning Crescent, 5% of the Moon is Illuminated
May 7
Waning Crescent
May 9
New
May 18
First Quarter
May 25
Full
May 31
Last Quarter

Hourly Weather History & Observations

Time (EDT) Temp. Dew Point Humidity Pressure Visibility Wind Dir Wind Speed Gust Speed Precip Events Conditions
9:35 AM 48.2 °F 48.2 °F 100% 30.00 in 10.0 mi Calm Calm - N/A   Unknown
9:55 AM 50.0 °F 48.2 °F 94% 30.00 in 10.0 mi Calm Calm - N/A   Overcast
10:15 AM 51.8 °F 48.2 °F 88% 30.00 in 10.0 mi Calm Calm - N/A   Overcast
10:35 AM 55.4 °F 50.0 °F 82% 30.00 in 10.0 mi Calm Calm - N/A   Overcast
10:55 AM 53.6 °F 50.0 °F 88% 30.00 in 10.0 mi Calm Calm - N/A   Mostly Cloudy
11:15 AM 57.2 °F 51.8 °F 82% 30.00 in 10.0 mi Variable 3.5 mph - N/A   Partly Cloudy
11:35 AM 57.2 °F 51.8 °F 82% 30.00 in 10.0 mi East 3.5 mph - N/A   Clear
11:55 AM 59.0 °F 51.8 °F 77% 30.00 in 10.0 mi East 3.5 mph - N/A   Clear
12:15 PM 60.8 °F 48.2 °F 63% 30.00 in 10.0 mi Calm Calm - N/A   Clear
12:35 PM 62.6 °F 51.8 °F 68% 30.00 in 10.0 mi Calm Calm - N/A   Clear
12:55 PM 62.6 °F 48.2 °F 59% 29.99 in 10.0 mi Calm Calm - N/A   Clear
1:15 PM 64.4 °F 48.2 °F 56% 29.99 in 10.0 mi Calm Calm - N/A   Clear
1:35 PM 64.4 °F 50.0 °F 59% 29.99 in 10.0 mi Calm Calm - N/A   Clear
1:55 PM 64.4 °F 50.0 °F 59% 29.99 in 10.0 mi Variable 4.6 mph - N/A   Partly Cloudy
2:15 PM 66.2 °F 50.0 °F 56% 29.98 in 10.0 mi WSW 6.9 mph - N/A   Clear
2:35 PM 66.2 °F 50.0 °F 56% 29.98 in 10.0 mi West 6.9 mph - N/A   Partly Cloudy
2:55 PM 66.2 °F 51.8 °F 60% 29.98 in 10.0 mi West 5.8 mph - N/A   Scattered Clouds
3:15 PM 66.2 °F 51.8 °F 60% 29.97 in 10.0 mi West 3.5 mph - N/A   Mostly Cloudy
3:35 PM 66.2 °F 51.8 °F 60% 29.97 in 10.0 mi West 9.2 mph - N/A   Scattered Clouds
3:55 PM 66.2 °F 51.8 °F 60% 29.97 in 10.0 mi WNW 8.1 mph - N/A   Scattered Clouds
4:15 PM 66.2 °F 51.8 °F 60% 29.96 in 10.0 mi West 6.9 mph - N/A   Mostly Cloudy
4:35 PM 66.2 °F 51.8 °F 60% 29.96 in 10.0 mi West 5.8 mph - N/A   Overcast
4:55 PM 68.0 °F 51.8 °F 56% 29.96 in 10.0 mi NW 8.1 mph - N/A   Mostly Cloudy
5:15 PM 69.8 °F 51.8 °F 53% 29.96 in 10.0 mi NW 8.1 mph - N/A   Mostly Cloudy
5:35 PM 66.2 °F 51.8 °F 60% 29.96 in 10.0 mi NW 8.1 mph - N/A   Mostly Cloudy
5:55 PM 66.2 °F 51.8 °F 60% 29.97 in 10.0 mi NW 6.9 mph - N/A   Mostly Cloudy
6:15 PM 66.2 °F 51.8 °F 60% 29.97 in 10.0 mi WNW 6.9 mph - N/A   Mostly Cloudy
6:35 PM 64.4 °F 51.8 °F 64% 29.97 in 10.0 mi WNW 4.6 mph - N/A   Scattered Clouds
6:55 PM 66.2 °F 53.6 °F 64% 29.97 in 10.0 mi Calm Calm - N/A   Clear
7:15 PM 64.4 °F 51.8 °F 64% 29.97 in 10.0 mi NW 3.5 mph - N/A   Clear
7:55 PM 64.4 °F 51.8 °F 64% 29.97 in 10.0 mi West 4.6 mph - N/A   Scattered Clouds
8:15 PM 64.4 °F 53.6 °F 68% 29.98 in 10.0 mi Calm Calm - N/A   Scattered Clouds
8:35 PM 62.6 °F 53.6 °F 72% 29.98 in 10.0 mi WSW 4.6 mph - N/A   Scattered Clouds
8:55 PM 60.8 °F 53.6 °F 77% 29.99 in 10.0 mi WSW 3.5 mph - N/A   Partly Cloudy
9:15 PM 60.8 °F 53.6 °F 77% 30.00 in 10.0 mi Calm Calm - N/A   Scattered Clouds
9:35 PM 60.8 °F 53.6 °F 77% 30.00 in 10.0 mi SW 3.5 mph - N/A   Mostly Cloudy
9:55 PM 60.8 °F 53.6 °F 77% 30.00 in 10.0 mi WSW 3.5 mph - N/A   Mostly Cloudy
10:15 PM 60.8 °F 53.6 °F 77% 30.01 in 10.0 mi WSW 4.6 mph - N/A   Partly Cloudy
10:35 PM 59.0 °F 53.6 °F 82% 30.02 in 10.0 mi West 3.5 mph - N/A   Clear
10:55 PM 59.0 °F 53.6 °F 82% 30.02 in 10.0 mi Calm Calm - N/A   Partly Cloudy
11:15 PM 57.2 °F 53.6 °F 88% 30.02 in 10.0 mi Calm Calm - N/A   Scattered Clouds
11:35 PM 55.4 °F 53.6 °F 94% 30.02 in 10.0 mi Calm Calm - N/A   Partly Cloudy
11:55 PM 55.4 °F 53.6 °F 94% 30.02 in 10.0 mi Calm Calm - N/A   Partly Cloudy